Location: *
(49.4547°N, 7.9131°E)
Time: 20:13:49
(UTC+00:00)

YAOGAN 6 - Pass Details

Date: 22 September 2019
Orbit: 466 x 505 km, 97.0° (Epoch: 21 October)

Event Time Altitude Azimuth Distance (km) Brightness Sun altitude
Rises 18:07:40 0° 181° (S) 2,579 6.2 -7.4°
Reaches altitude 10° 18:09:48 10° 188° (S) 1,706 5.3 -7.7°
Maximum altitude 18:13:20 44° 262° (W) 705 4.0 -8.3°
Drops below altitude 10° 18:16:55 10° 336° (NNW) 1,731 5.9 -8.9°
Sets 18:19:06 0° 343° (NNW) 2,622 6.7 -9.2°
